KLM635 EHAM-EDDP

Flight info

Callsign KLM635
Flight time 0h 51m
Altitude 37000
Route ARNEM L620 HMM DCT NORTA/N0392F230 DCT ADMOS T959 KOJEC KOJEC1R
Aircraft A21N/M-SDE3FGHIRWY/LB1

Departure

Time 2026-05-07 18:09
Airport Amsterdam Airport Schiphol (EHAM)

Arrival

Time 2026-05-07 19:01
Airport Leipzig/Halle Airport (EDDP)
Time Latitude Longitude Altitude Speed Heading
2026-05-07 17:29 52.30702 4.77214 -3 ft 0 kts
2026-05-07 17:56 52.30695 4.77213 -3 ft 2 kts
2026-05-07 17:56 52.30680 4.77210 -3 ft 2 kts 22°
2026-05-07 17:56 52.30666 4.77198 -4 ft 2 kts 39°
2026-05-07 17:56 52.30656 4.77180 -4 ft 2 kts 58°
2026-05-07 17:57 52.30650 4.77158 -3 ft 2 kts 76°
2026-05-07 17:57 52.30648 4.77142 -3 ft 1 kts 88°
2026-05-07 17:57 52.30648 4.77127 -4 ft 0 kts 94°
2026-05-07 18:01 52.30648 4.77136 -4 ft 1 kts 94°
2026-05-07 18:01 52.30647 4.77181 -4 ft 6 kts 93°
2026-05-07 18:02 52.30582 4.77250 -3 ft 7 kts 211°
2026-05-07 18:02 52.30547 4.77177 -3 ft 9 kts 238°
2026-05-07 18:02 52.30500 4.77055 -4 ft 15 kts 238°
2026-05-07 18:03 52.30435 4.76886 -3 ft 19 kts 238°
2026-05-07 18:03 52.30361 4.76694 -4 ft 19 kts 238°
2026-05-07 18:03 52.30290 4.76506 -3 ft 19 kts 238°
2026-05-07 18:03 52.30219 4.76322 -3 ft 18 kts 238°
2026-05-07 18:04 52.30149 4.76142 -3 ft 18 kts 239°
2026-05-07 18:04 52.30078 4.75956 -3 ft 20 kts 238°
2026-05-07 18:04 52.30002 4.75757 -4 ft 21 kts 238°
2026-05-07 18:04 52.29919 4.75540 -4 ft 22 kts 238°
2026-05-07 18:05 52.29843 4.75340 -4 ft 19 kts 245°
2026-05-07 18:05 52.29863 4.75154 -4 ft 17 kts 309°
2026-05-07 18:05 52.29941 4.75010 -4 ft 16 kts 311°
2026-05-07 18:05 52.30019 4.74863 -3 ft 18 kts 312°
2026-05-07 18:06 52.30102 4.74712 -3 ft 17 kts 311°
2026-05-07 18:06 52.30183 4.74561 -3 ft 17 kts 311°
2026-05-07 18:06 52.30263 4.74413 -3 ft 16 kts 311°
2026-05-07 18:06 52.30331 4.74285 -3 ft 14 kts 311°
2026-05-07 18:07 52.30369 4.74196 -3 ft 8 kts 288°
2026-05-07 18:07 52.30359 4.74098 -3 ft 11 kts 238°
2026-05-07 18:07 52.30290 4.73993 -3 ft 15 kts 214°
2026-05-07 18:07 52.30205 4.73889 -3 ft 14 kts 229°
2026-05-07 18:08 52.30215 4.73755 -3 ft 12 kts 340°
2026-05-07 18:08 52.30302 4.73744 -3 ft 10 kts
2026-05-07 18:08 52.30315 4.73745 -3 ft 0 kts
2026-05-07 18:08 52.30326 4.73746 -3 ft 3 kts
2026-05-07 18:09 52.30555 4.73767 -3 ft 75 kts
2026-05-07 18:09 52.31359 4.73840 -3 ft 152 kts
2026-05-07 18:09 52.32555 4.73935 382 ft 181 kts
2026-05-07 18:09 52.33755 4.74211 1368 ft 176 kts 19°
2026-05-07 18:10 52.34850 4.74879 2346 ft 170 kts 25°
2026-05-07 18:10 52.35979 4.75660 2899 ft 186 kts 25°
2026-05-07 18:10 52.36928 4.76313 3311 ft 199 kts 26°
2026-05-07 18:10 52.38110 4.77477 3799 ft 216 kts 40°
2026-05-07 18:11 52.39259 4.79241 4285 ft 237 kts 47°
2026-05-07 18:11 52.40042 4.80572 4681 ft 250 kts 47°
2026-05-07 18:11 52.41659 4.83471 5535 ft 266 kts 56°
2026-05-07 18:11 52.42369 4.86256 6185 ft 271 kts 82°
2026-05-07 18:12 52.42442 4.89318 7138 ft 271 kts 91°
2026-05-07 18:12 52.42425 4.92408 7999 ft 276 kts 91°
2026-05-07 18:12 52.42405 4.95568 8827 ft 281 kts 93°
2026-05-07 18:12 52.41940 4.98661 9582 ft 286 kts 119°
2026-05-07 18:13 52.40642 5.01097 10351 ft 289 kts 143°
2026-05-07 18:13 52.38959 5.03009 10930 ft 302 kts 146°
2026-05-07 18:13 52.37170 5.05001 11303 ft 320 kts 146°
2026-05-07 18:13 52.35296 5.07153 11682 ft 338 kts 142°
2026-05-07 18:14 52.33619 5.09962 12158 ft 351 kts 127°
2026-05-07 18:14 52.32417 5.13440 12907 ft 356 kts 114°
2026-05-07 18:14 52.31504 5.17181 13668 ft 359 kts 111°
2026-05-07 18:14 52.30613 5.21017 14367 ft 363 kts 111°
2026-05-07 18:15 52.29709 5.24904 15073 ft 367 kts 111°
2026-05-07 18:15 52.28791 5.28818 15743 ft 371 kts 111°
2026-05-07 18:15 52.27856 5.32760 16419 ft 375 kts 111°
2026-05-07 18:15 52.26905 5.36751 17095 ft 378 kts 111°
2026-05-07 18:16 52.25941 5.40776 17729 ft 382 kts 111°
2026-05-07 18:16 52.24967 5.44832 18368 ft 385 kts 111°
2026-05-07 18:16 52.23988 5.48897 18990 ft 389 kts 111°
2026-05-07 18:16 52.22996 5.53011 19592 ft 392 kts 111°
2026-05-07 18:17 52.21993 5.57164 20162 ft 396 kts 111°
2026-05-07 18:17 52.20975 5.61364 20730 ft 400 kts 111°
2026-05-07 18:17 52.19949 5.65587 21275 ft 404 kts 112°
2026-05-07 18:17 52.18908 5.69872 21805 ft 407 kts 112°
2026-05-07 18:18 52.17854 5.74198 22327 ft 411 kts 112°
2026-05-07 18:18 52.16788 5.78568 22854 ft 414 kts 113°
2026-05-07 18:18 52.15712 5.82970 23372 ft 417 kts 113°
2026-05-07 18:18 52.14635 5.87369 23863 ft 420 kts 113°
2026-05-07 18:19 52.13546 5.91802 24336 ft 423 kts 113°
2026-05-07 18:19 52.12444 5.96277 24790 ft 426 kts 113°
2026-05-07 18:19 52.11335 6.00773 25055 ft 429 kts 113°
2026-05-07 18:19 52.10306 6.05335 25057 ft 429 kts 109°
2026-05-07 18:20 52.09478 6.10010 25060 ft 429 kts 104°
2026-05-07 18:20 52.08868 6.14763 25062 ft 430 kts 101°
2026-05-07 18:20 52.08364 6.19551 25062 ft 430 kts 100°
2026-05-07 18:20 52.07875 6.24347 25061 ft 430 kts 100°
2026-05-07 18:21 52.07385 6.29139 25060 ft 430 kts 100°
2026-05-07 18:21 52.06891 6.33914 25060 ft 430 kts 100°
2026-05-07 18:21 52.06392 6.38692 25061 ft 430 kts 100°
2026-05-07 18:21 52.05891 6.43455 25061 ft 430 kts 100°
2026-05-07 18:22 52.05385 6.48233 25061 ft 430 kts 100°
2026-05-07 18:22 52.05047 6.51414 25062 ft 430 kts 100°
2026-05-07 18:22 52.04369 6.57767 25064 ft 429 kts 100°
2026-05-07 18:22 52.03857 6.62542 25066 ft 430 kts 100°
2026-05-07 18:23 52.03355 6.67189 25065 ft 430 kts 101°
2026-05-07 18:23 52.02835 6.71990 25065 ft 431 kts 101°
2026-05-07 18:23 52.02266 6.76799 25066 ft 431 kts 103°
2026-05-07 18:23 52.01549 6.81572 25197 ft 435 kts 105°
2026-05-07 18:24 52.00800 6.86343 25684 ft 436 kts 105°
2026-05-07 18:24 52.00049 6.91098 26190 ft 437 kts 105°
2026-05-07 18:24 51.99285 6.95914 26614 ft 439 kts 105°
2026-05-07 18:24 51.98521 7.00722 27004 ft 442 kts 105°
2026-05-07 18:25 51.97753 7.05547 27380 ft 444 kts 105°
2026-05-07 18:25 51.96967 7.10412 27750 ft 446 kts 106°
2026-05-07 18:25 51.96092 7.15252 28107 ft 448 kts 107°
2026-05-07 18:25 51.95194 7.20104 28457 ft 450 kts 107°
2026-05-07 18:26 51.94290 7.24969 28795 ft 452 kts 107°
2026-05-07 18:26 51.93382 7.29846 29167 ft 453 kts 107°
2026-05-07 18:26 51.92481 7.34680 29836 ft 447 kts 107°
2026-05-07 18:26 51.91591 7.39452 30508 ft 440 kts 107°
2026-05-07 18:27 51.90714 7.44145 31163 ft 433 kts 107°
2026-05-07 18:27 51.89853 7.48736 31786 ft 426 kts 107°
2026-05-07 18:27 51.88992 7.53305 32420 ft 418 kts 107°
2026-05-07 18:27 51.88431 7.56280 32835 ft 413 kts 107°
2026-05-07 18:28 51.87377 7.62178 33608 ft 403 kts 104°
2026-05-07 18:28 51.86754 7.66592 33981 ft 401 kts 101°
2026-05-07 18:28 51.86289 7.71020 34356 ft 398 kts 98°
2026-05-07 18:28 51.85976 7.75508 34551 ft 400 kts 95°
2026-05-07 18:29 51.85819 7.80095 34685 ft 404 kts 91°
2026-05-07 18:29 51.85819 7.84681 34796 ft 408 kts 89°
2026-05-07 18:29 51.85881 7.89286 34912 ft 411 kts 89°
2026-05-07 18:29 51.85948 7.93918 35016 ft 414 kts 89°
2026-05-07 18:30 51.86012 7.98604 35062 ft 420 kts 89°
2026-05-07 18:30 51.86131 8.08197 35065 ft 432 kts 89°
2026-05-07 18:31 51.86238 8.17833 35060 ft 443 kts 89°
2026-05-07 18:31 51.86340 8.27869 35063 ft 446 kts 89°
2026-05-07 18:32 51.86434 8.37902 35063 ft 446 kts 89°
2026-05-07 18:32 51.86519 8.47942 35069 ft 446 kts 89°
2026-05-07 18:33 51.86590 8.57396 35058 ft 446 kts 88°
2026-05-07 18:33 51.86657 8.67407 35066 ft 445 kts 89°
2026-05-07 18:34 51.86718 8.77499 35064 ft 445 kts 89°
2026-05-07 18:34 51.86769 8.87537 34788 ft 442 kts 89°
2026-05-07 18:34 51.86791 8.92473 34567 ft 435 kts 89°
2026-05-07 18:35 51.86811 8.97334 34345 ft 427 kts 89°
2026-05-07 18:35 51.86830 9.02114 34135 ft 426 kts 89°
2026-05-07 18:35 51.86847 9.06912 33917 ft 427 kts 89°
2026-05-07 18:35 51.86860 9.11694 33678 ft 427 kts 89°
2026-05-07 18:36 51.86872 9.16500 33436 ft 428 kts 89°
2026-05-07 18:36 51.86882 9.21312 33195 ft 429 kts 89°
2026-05-07 18:36 51.86890 9.26124 32959 ft 429 kts 89°
2026-05-07 18:36 51.86896 9.30950 32651 ft 431 kts 89°
2026-05-07 18:37 51.86901 9.35781 32271 ft 431 kts 89°
2026-05-07 18:37 51.86903 9.40628 31904 ft 432 kts 89°
2026-05-07 18:37 51.86904 9.45462 31412 ft 434 kts 89°
2026-05-07 18:37 51.86903 9.50350 30773 ft 435 kts 89°
2026-05-07 18:38 51.86900 9.55229 30063 ft 436 kts 89°
2026-05-07 18:38 51.86895 9.60099 29395 ft 428 kts 89°
2026-05-07 18:38 51.86887 9.64840 28722 ft 420 kts 89°
2026-05-07 18:38 51.86876 9.69553 28184 ft 412 kts 90°
2026-05-07 18:39 51.86863 9.74185 27642 ft 406 kts 90°
2026-05-07 18:39 51.86740 9.78703 27118 ft 399 kts 94°
2026-05-07 18:39 51.86438 9.83113 26667 ft 392 kts 98°
2026-05-07 18:39 51.85966 9.87415 26152 ft 386 kts 102°
2026-05-07 18:40 51.85394 9.91634 25600 ft 383 kts 102°
2026-05-07 18:40 51.84817 9.95805 25155 ft 378 kts 103°
2026-05-07 18:40 51.84241 9.99959 25081 ft 379 kts 103°
2026-05-07 18:40 51.83661 10.04137 25078 ft 380 kts 103°
2026-05-07 18:41 51.83082 10.08310 25075 ft 380 kts 102°
2026-05-07 18:41 51.82503 10.12473 25074 ft 380 kts 102°
2026-05-07 18:41 51.81922 10.16647 25068 ft 381 kts 102°
2026-05-07 18:41 51.81342 10.20809 24613 ft 376 kts 102°
2026-05-07 18:42 51.80761 10.24965 24078 ft 379 kts 103°
2026-05-07 18:42 51.80181 10.29106 23547 ft 378 kts 103°
2026-05-07 18:42 51.79600 10.33239 23020 ft 376 kts 102°
2026-05-07 18:42 51.79024 10.37326 22494 ft 373 kts 102°
2026-05-07 18:43 51.78449 10.41391 21969 ft 370 kts 102°
2026-05-07 18:43 51.77878 10.45424 21447 ft 367 kts 102°
2026-05-07 18:43 51.77309 10.49428 20926 ft 366 kts 102°
2026-05-07 18:43 51.76743 10.53406 20411 ft 365 kts 102°
2026-05-07 18:44 51.76176 10.57389 19894 ft 364 kts 102°
2026-05-07 18:44 51.75608 10.61363 19382 ft 364 kts 102°
2026-05-07 18:44 51.75041 10.65319 18872 ft 363 kts 103°
2026-05-07 18:44 51.74470 10.69287 18359 ft 362 kts 103°
2026-05-07 18:45 51.73895 10.73266 17852 ft 361 kts 103°
2026-05-07 18:45 51.73326 10.77197 17351 ft 360 kts 103°
2026-05-07 18:45 51.72768 10.81126 16845 ft 359 kts 103°
2026-05-07 18:45 51.72218 10.85035 16344 ft 358 kts 102°
2026-05-07 18:46 51.71669 10.88929 15844 ft 357 kts 102°
2026-05-07 18:46 51.71126 10.92766 15333 ft 345 kts 102°
2026-05-07 18:46 51.70596 10.96495 14831 ft 343 kts 102°
2026-05-07 18:46 51.70060 11.00261 14327 ft 346 kts 102°
2026-05-07 18:47 51.69524 11.04001 13826 ft 342 kts 102°
2026-05-07 18:47 51.68991 11.07713 13325 ft 339 kts 102°
2026-05-07 18:47 51.68459 11.11391 12822 ft 336 kts 102°
2026-05-07 18:47 51.67933 11.15022 12316 ft 332 kts 102°
2026-05-07 18:48 51.67406 11.18630 11808 ft 329 kts 102°
2026-05-07 18:48 51.66880 11.22206 11306 ft 328 kts 103°
2026-05-07 18:48 51.66350 11.25772 10798 ft 327 kts 102°
2026-05-07 18:48 51.65816 11.29332 10309 ft 325 kts 102°
2026-05-07 18:49 51.65292 11.32820 10071 ft 318 kts 102°
2026-05-07 18:49 51.64768 11.36288 10065 ft 319 kts 102°
2026-05-07 18:49 51.64239 11.39755 10066 ft 319 kts 103°
2026-05-07 18:49 51.63707 11.43214 10063 ft 319 kts 102°
2026-05-07 18:50 51.63172 11.46694 10062 ft 320 kts 102°
2026-05-07 18:50 51.62643 11.50161 10061 ft 319 kts 102°
2026-05-07 18:50 51.62111 11.53628 10025 ft 320 kts 102°
2026-05-07 18:50 51.61581 11.57045 9544 ft 310 kts 102°
2026-05-07 18:51 51.61068 11.60336 9032 ft 298 kts 102°
2026-05-07 18:51 51.60567 11.63504 8518 ft 287 kts 102°
2026-05-07 18:51 51.60075 11.66557 8002 ft 278 kts 102°
2026-05-07 18:51 51.59582 11.69551 7482 ft 272 kts 103°
2026-05-07 18:52 51.59094 11.72517 6960 ft 272 kts 104°
2026-05-07 18:52 51.58615 11.75429 6360 ft 268 kts 102°
2026-05-07 18:52 51.58142 11.78276 5838 ft 261 kts 102°
2026-05-07 18:52 51.57564 11.80985 5319 ft 256 kts 119°
2026-05-07 18:53 51.56341 11.82945 5002 ft 245 kts 150°
2026-05-07 18:53 51.54721 11.83527 4979 ft 242 kts 184°
2026-05-07 18:53 51.53122 11.82714 4819 ft 244 kts 209°
2026-05-07 18:53 51.51621 11.81469 4308 ft 242 kts 195°
2026-05-07 18:54 51.49983 11.81179 4019 ft 236 kts 178°
2026-05-07 18:54 51.48337 11.81281 3996 ft 237 kts 175°
2026-05-07 18:54 51.46759 11.81507 3953 ft 218 kts 162°
2026-05-07 18:54 51.45503 11.82707 4026 ft 209 kts 129°
2026-05-07 18:55 51.44698 11.84647 4048 ft 209 kts 116°
2026-05-07 18:55 51.44007 11.86666 3991 ft 199 kts 115°
2026-05-07 18:55 51.43374 11.88565 3706 ft 191 kts 115°
2026-05-07 18:55 51.42760 11.90434 3328 ft 187 kts 115°
2026-05-07 18:56 51.42237 11.92293 3005 ft 176 kts 105°
2026-05-07 18:56 51.42002 11.94143 2983 ft 168 kts 93°
2026-05-07 18:56 51.41956 11.96015 2994 ft 167 kts 85°
2026-05-07 18:56 51.42031 11.97876 2989 ft 168 kts 82°
2026-05-07 18:57 51.42131 11.99736 2990 ft 167 kts 82°
2026-05-07 18:57 51.42227 12.01597 2925 ft 168 kts 82°
2026-05-07 18:57 51.42314 12.03462 2701 ft 168 kts 83°
2026-05-07 18:57 51.42396 12.05324 2475 ft 167 kts 82°
2026-05-07 18:58 51.42477 12.07184 2256 ft 166 kts 83°
2026-05-07 18:58 51.42552 12.08945 2002 ft 151 kts 82°
2026-05-07 18:58 51.42622 12.10553 1783 ft 141 kts 82°
2026-05-07 18:58 51.42693 12.12123 1612 ft 141 kts 82°
2026-05-07 18:59 51.42765 12.13682 1435 ft 140 kts 83°
2026-05-07 18:59 51.42835 12.15240 1248 ft 140 kts 83°
2026-05-07 18:59 51.42905 12.16787 1072 ft 139 kts 84°
2026-05-07 18:59 51.42974 12.18338 858 ft 138 kts 82°
2026-05-07 19:00 51.43049 12.19882 667 ft 139 kts 82°
2026-05-07 19:00 51.43116 12.21414 485 ft 138 kts 83°
2026-05-07 19:00 51.43185 12.22866 428 ft 119 kts 84°
2026-05-07 19:00 51.43236 12.23965 434 ft 74 kts 84°
2026-05-07 19:01 51.43231 12.24503 440 ft 36 kts 105°
2026-05-07 19:01 51.43156 12.24787 443 ft 21 kts 114°
2026-05-07 19:01 51.43114 12.24928 445 ft 9 kts 116°
2026-05-07 19:01 51.43096 12.24986 445 ft 5 kts 115°
2026-05-07 19:02 51.43084 12.25027 446 ft 1 kts 115°
2026-05-07 19:02 51.43083 12.25029 446 ft 0 kts 115°
2026-05-07 19:02 51.43082 12.25032 446 ft 0 kts 115°
2026-05-07 19:02 51.43082 12.25034 446 ft 0 kts 115°
2026-05-07 19:03 51.43081 12.25036 446 ft 0 kts 115°
2026-05-07 19:04 51.43077 12.25051 446 ft 3 kts 115°
2026-05-07 19:04 51.43046 12.25104 447 ft 9 kts 152°
2026-05-07 19:04 51.42955 12.25094 447 ft 16 kts 193°
2026-05-07 19:04 51.42824 12.25043 449 ft 21 kts 193°
2026-05-07 19:05 51.42663 12.24983 451 ft 25 kts 193°
2026-05-07 19:05 51.42483 12.24913 455 ft 26 kts 193°
2026-05-07 19:05 51.42312 12.24847 460 ft 24 kts 193°
2026-05-07 19:05 51.42153 12.24786 463 ft 21 kts 193°
2026-05-07 19:06 51.42006 12.24731 466 ft 21 kts 194°
2026-05-07 19:06 51.41720 12.24619 469 ft 18 kts 193°
2026-05-07 19:06 51.41659 12.24524 468 ft 12 kts 260°
2026-05-07 19:07 51.41648 12.24374 467 ft 15 kts 265°
2026-05-07 19:07 51.41638 12.24175 466 ft 19 kts 265°
2026-05-07 19:07 51.41627 12.23934 464 ft 23 kts 265°
2026-05-07 19:07 51.41614 12.23661 464 ft 25 kts 266°
2026-05-07 19:08 51.41601 12.23364 463 ft 26 kts 265°
2026-05-07 19:08 51.41622 12.23093 462 ft 24 kts 285°
2026-05-07 19:08 51.41667 12.22833 459 ft 24 kts 285°
2026-05-07 19:08 51.41712 12.22570 455 ft 24 kts 285°
2026-05-07 19:09 51.41757 12.22312 451 ft 18 kts 286°
2026-05-07 19:09 51.41792 12.22102 447 ft 19 kts 285°
2026-05-07 19:09 51.41829 12.21884 442 ft 21 kts 284°
2026-05-07 19:09 51.41869 12.21650 437 ft 22 kts 285°
2026-05-07 19:10 51.41912 12.21406 433 ft 21 kts 285°
2026-05-07 19:10 51.41936 12.21270 431 ft 4 kts 295°
2026-05-07 19:10 51.41967 12.21251 431 ft 6 kts
2026-05-07 19:10 51.42016 12.21269 430 ft 7 kts 15°
2026-05-07 19:11 51.42065 12.21290 429 ft 4 kts 15°
2026-05-07 19:11 51.42087 12.21300 429 ft 1 kts 15°
2026-05-07 19:11 51.42096 12.21303 429 ft 0 kts 15°